GFSNIL_sfc_rhum_114.txt.gz
RH
72 74 76 77 77 77 75 71 69 77 75 87 83 83 85 88 86 88 89 87 85 81
77 76 78 78 78 79 78 73 76 76 81 86 88 86 85 88 89 90 90 91 90 86
81 81 81 82 84 83 81 81 81 78 75 86 88 89 89 89 85 92 92 91 89 95
85 85 86 88 89 88 88 86 86 79 76 84 89 90 93 86 84 84 90 90 93 93
88 86 89 89 89 90 92 91 87 80 75 78 89 91 90 88 86 85 90 91 90 92
91 91 93 91 90 89 92 92 94 80 77 79 82 88 91 88 90 92 88 88 92 91
91 94 96 95 92 92 90 92 94 92 81 81 91 90 91 90 91 90 88 91 93 93
91 90 90 94 94 95 96 95 94 94 94 95 97 94 97 91 93 94 98 95 91 96
95 90 92 93 94 94 93 90 93 95 94 95 90 97 100 98 95 96 94 97 96 95
98 97 96 91 91 94 96 94 93 93 94 96 95 96 97 98 96 97 97 96 93 92
98 98 97 94 95 95 95 96 96 94 93 95 97 96 97 98 93 96 96 97 97 96
98 96 97 96 96 97 96 96 96 94 93 94 96 96 96 94 95 95 96 96 97 96
97 96 97 97 98 98 97 97 95 94 96 94 96 96 93 95 97 95 95 96 96 96
88 92 95 96 97 97 97 94 96 96 96 97 97 97 95 95 95 96 94 95 96 97

GFSNIL_sfc_rhum_120.txt.gz
RH
82 84 81 77 76 78 78 78 76 82 83 84 86 87 88 87 92 94 93 84 85 88
81 78 78 77 77 79 77 74 76 80 82 82 80 82 86 91 84 93 92 88 87 86
78 76 77 77 79 81 80 80 82 85 85 86 86 81 84 90 86 89 90 89 92 93
78 80 83 85 85 85 85 84 85 84 85 86 86 85 89 87 88 84 90 87 86 88
80 83 84 86 86 86 87 85 86 85 85 85 86 88 89 90 87 82 91 89 90 91
90 92 88 87 87 85 86 85 86 85 88 88 89 92 91 90 90 83 86 83 87 88
95 96 96 93 91 89 86 87 88 86 87 89 88 88 90 89 90 82 87 88 82 83
98 97 97 97 97 97 91 89 89 89 86 88 86 86 95 95 92 85 90 92 91 89
95 96 96 96 97 96 95 96 97 94 90 91 87 95 98 93 95 96 96 97 98 98
95 95 97 96 96 96 97 96 96 97 96 94 95 98 96 92 92 94 96 97 97 96
95 96 96 96 96 96 97 97 96 96 97 96 95 98 96 88 91 94 98 99 100 97
86 91 94 96 96 96 96 96 96 96 95 96 97 95 94 90 91 95 97 96 95 97
84 85 90 91 92 90 93 96 95 95 95 94 96 97 97 95 96 95 94 92 94 96
87 86 87 87 87 90 89 87 88 86 87 91 95 96 94 89 94 96 96 96 96 97

GFSNIL_sfc_rhum_123.txt.gz
RH
74 77 78 77 77 79 81 79 75 80 81 81 81 81 79 85 90 94 92 95 93 89
74 73 76 76 76 78 77 76 77 81 84 83 85 86 85 84 86 89 94 89 95 91
73 72 76 78 79 80 79 79 82 84 85 85 85 85 87 88 85 89 92 91 90 94
78 76 78 79 83 83 83 82 83 83 85 84 84 85 88 90 87 87 88 91 87 89
83 83 82 84 84 85 85 83 84 83 83 83 84 86 88 91 88 90 92 89 90 82
84 87 89 87 86 85 86 84 83 83 84 84 86 86 86 88 89 90 90 89 91 81
88 89 90 87 88 88 87 86 86 85 85 86 86 84 87 88 89 90 90 91 90 82
92 90 90 92 93 92 91 90 86 86 88 87 85 85 94 93 94 94 95 96 96 96
94 94 95 96 96 93 90 92 94 94 95 92 86 95 93 94 94 92 96 97 97 96
93 94 94 94 92 94 95 93 95 95 96 96 96 97 94 93 94 94 95 95 94 92
89 89 88 91 94 94 96 96 96 96 96 95 96 98 98 98 97 94 94 95 95 96
87 88 88 90 92 91 93 94 96 96 95 96 96 97 97 97 95 92 94 93 92 93
88 90 92 91 90 90 91 92 89 87 91 92 96 96 95 94 96 95 94 93 94 96
89 89 91 91 90 90 90 90 89 88 86 87 85 86 83 87 94 95 94 96 96 97

GFSNIL_sfc_rhum_126.txt.gz
RH
71 74 74 72 72 76 77 77 75 79 81 82 83 85 86 88 88 88 91 92 93 90
73 74 76 74 75 78 76 74 75 79 82 83 84 85 85 88 90 88 89 90 91 92
80 77 75 74 76 79 77 78 80 82 82 82 83 83 85 88 87 91 90 88 89 91
83 80 82 81 81 84 82 81 82 81 82 82 82 83 85 87 87 90 91 89 89 88
85 82 85 85 84 85 86 83 83 82 81 81 82 83 86 87 85 88 90 88 87 87
83 87 84 89 89 86 86 84 84 83 84 82 84 84 84 85 86 86 88 90 90 88
92 92 93 93 93 90 85 85 84 84 90 88 84 84 84 87 91 90 86 88 90 89
95 95 94 93 94 93 88 88 90 88 90 89 87 88 92 89 90 93 93 90 93 96
94 96 96 96 96 95 93 95 96 95 95 95 90 96 97 92 90 89 92 95 94 93
90 90 90 88 88 92 96 94 94 94 95 96 96 96 96 94 94 92 94 95 95 93
90 90 88 88 90 91 91 91 89 93 95 95 96 96 95 95 96 95 96 96 96 97
91 92 91 92 91 91 92 91 90 88 90 91 94 93 94 95 96 96 96 96 95 94
90 91 93 93 91 89 90 91 89 88 88 85 90 77 80 88 94 94 96 94 94 95
88 88 92 91 90 88 89 89 88 88 88 88 85 85 76 77 90 94 93 93 94 95

GFSNIL_sfc_rhum_132.txt.gz
RH
60 59 58 62 64 61 62 62 63 63 65 69 71 73 75 77 78 78 81 82 78 74
60 63 63 64 62 62 64 61 64 65 66 68 71 74 75 78 81 81 82 84 84 80
62 62 62 62 66 67 66 65 66 67 64 65 66 67 72 75 76 80 82 79 84 84
64 64 64 65 66 67 67 66 65 65 65 64 63 66 71 74 74 76 78 81 84 85
68 67 69 69 68 71 68 67 66 67 67 66 65 65 67 71 77 80 83 81 79 80
71 73 75 75 74 73 70 66 65 65 68 72 72 67 70 74 79 83 82 84 89 84
67 70 73 73 75 77 73 72 69 69 69 76 74 72 71 72 74 79 86 89 89 90
73 68 69 71 74 73 72 72 72 72 71 75 75 85 81 75 74 76 88 92 87 91
81 82 84 83 82 77 72 76 83 80 77 80 78 90 90 86 85 83 90 93 93 92
84 84 83 82 80 84 86 83 82 89 91 94 93 78 88 93 93 92 95 95 95 92
82 81 81 82 81 83 92 87 86 83 87 87 88 78 79 81 92 95 96 96 96 96
84 82 80 81 81 84 84 84 81 81 81 84 85 72 80 84 90 92 92 94 96 96
81 80 81 82 81 85 86 84 81 80 78 77 85 67 69 81 92 92 92 88 90 83
79 81 81 82 85 82 82 82 79 79 80 82 80 80 66 69 86 90 90 91 91 88